| time (UTC) | temp C | wind direction | speed KPH | gust KPH | rain 1hr cm | rain 24hr cm | rain mn cm | humidity % | barometer mb |
| 20260505200058 | 25 | 0 | 0.0 | 8.0 | 0.00 | 0.00 | 0.00 | 51 | 1016.4 |
| 20260505194559 | 26 | 0 | 0.0 | 8.0 | 0.00 | 0.00 | 0.00 | 49 | 1016.5 |
| 20260505193056 | 26 | 98 | 0.0 | 8.0 | 0.00 | 0.00 | 0.00 | 46 | 1016.7 |
| 20260505191620 | 26 | 0 | 0.0 | 8.0 | 0.00 | 0.00 | 0.00 | 46 | 1017.0 |
| 20260505190100 | 26 | 0 | 0.0 | 9.7 | 0.00 | 0.00 | 0.00 | 48 | 1017.2 |
| 20260505184555 | 26 | 0 | 0.0 | 4.8 | 0.00 | 0.00 | 0.00 | 48 | 1017.3 |
| 20260505183057 | 26 | 0 | 1.6 | 8.0 | 0.00 | 0.00 | 0.00 | 47 | 1017.3 |
| 20260505181556 | 25 | 60 | 3.2 | 8.0 | 0.00 | 0.00 | 0.00 | 48 | 1017.3 |
| 20260505180106 | 25 | 0 | 0.0 | 9.7 | 0.00 | 0.00 | 0.00 | 48 | 1017.5 |
| 20260505174610 | 26 | 131 | 0.0 | 6.4 | 0.00 | 0.00 | 0.00 | 52 | 1017.8 |
| 20260505173058 | 26 | 0 | 0.0 | 6.4 | 0.00 | 0.00 | 0.00 | 54 | 1017.8 |
| 20260505171558 | 25 | 0 | 0.0 | 8.0 | 0.00 | 0.00 | 0.00 | 53 | 1018.0 |
| 20260505164559 | 25 | 0 | 1.6 | 4.8 | 0.00 | 0.00 | 0.00 | 49 | 1018.4 |
| 20260505163103 | 25 | 0 | 0.0 | 4.8 | 0.00 | 0.00 | 0.00 | 51 | 1018.6 |
| 20260505161600 | 24 | 51 | 1.6 | 6.4 | 0.00 | 0.00 | 0.00 | 53 | 1018.7 |
| 20260505153059 | 23 | 0 | 0.0 | 6.4 | 0.00 | 0.03 | 0.00 | 56 | 1019.1 |
| 20260505151556 | 23 | 0 | 0.0 | 8.0 | 0.00 | 0.03 | 0.00 | 57 | 1019.0 |
| 20260505124608 | 14 | 0 | 0.0 | 0.0 | 0.00 | 0.03 | 0.00 | 93 | 1018.7 |
| 20260505123100 | 13 | 0 | 0.0 | 0.0 | 0.00 | 0.03 | 0.00 | 93 | 1018.6 |
| 20260505121559 | 12 | 0 | 0.0 | 0.0 | 0.00 | 0.03 | 0.00 | 93 | 1018.7 |
| 20260505120059 | 11 | 0 | 0.0 | 0.0 | 0.00 | 0.03 | 0.00 | 92 | 1018.6 |
| 20260505114603 | 10 | 0 | 0.0 | 0.0 | 0.00 | 0.03 | 0.00 | 91 | 1018.5 |
| 20260505113058 | 10 | 0 | 0.0 | 0.0 | 0.00 | 0.03 | 0.00 | 90 | 1018.5 |
| 20260505111557 | 10 | 0 | 0.0 | 0.0 | 0.00 | 0.03 | 0.00 | 90 | 1018.3 |
| 20260505101609 | 10 | 0 | 0.0 | 0.0 | 0.00 | 0.03 | 0.00 | 88 | 1017.5 |
| 20260505100104 | 10 | 0 | 0.0 | 0.0 | 0.00 | 0.03 | 0.00 | 88 | 1017.3 |
| 20260505094559 | 10 | 0 | 0.0 | 0.0 | 0.00 | 0.03 | 0.00 | 88 | 1017.3 |
| 20260505093105 | 10 | 0 | 0.0 | 0.0 | 0.00 | 0.03 | 0.00 | 88 | 1017.1 |
| 20260505091556 | 10 | 0 | 0.0 | 0.0 | 0.00 | 0.03 | 0.00 | 88 | 1017.0 |
| 20260505090056 | 10 | 0 | 0.0 | 0.0 | 0.00 | 0.03 | 0.00 | 87 | 1016.9 |
| 20260505084606 | 10 | 0 | 0.0 | 0.0 | 0.00 | 0.03 | 0.00 | 87 | 1016.8 |
| 20260505083105 | 10 | 0 | 0.0 | 0.0 | 0.00 | 0.03 | 0.00 | 86 | 1016.7 |
| 20260505081623 | 11 | 0 | 0.0 | 0.0 | 0.00 | 0.03 | 0.00 | 86 | 1016.7 |
| 20260505074556 | 11 | 0 | 0.0 | 0.0 | 0.00 | 0.03 | 0.00 | 85 | 1016.7 |
| 20260505073104 | 11 | 0 | 0.0 | 0.0 | 0.00 | 0.03 | 0.00 | 85 | 1016.7 |
| 20260505071557 | 11 | 0 | 0.0 | 0.0 | 0.00 | 0.03 | 0.00 | 84 | 1016.8 |
| 20260505064555 | 12 | 0 | 0.0 | 0.0 | 0.00 | 0.03 | 0.00 | 83 | 1016.9 |
| 20260505061559 | 12 | 0 | 0.0 | 0.0 | 0.00 | 0.03 | 0.00 | 82 | 1017.3 |
| 20260505060103 | 12 | 0 | 0.0 | 0.0 | 0.00 | 0.03 | 0.00 | 82 | 1017.4 |
| 20260505054556 | 12 | 0 | 0.0 | 0.0 | 0.00 | 0.03 | 0.00 | 82 | 1017.5 |
| 20260505053101 | 12 | 0 | 0.0 | 0.0 | 0.00 | 0.03 | 0.00 | 81 | 1017.6 |
| 20260505051559 | 12 | 0 | 0.0 | 0.0 | 0.00 | 0.03 | 0.00 | 80 | 1017.7 |
| 20260505050105 | 13 | 0 | 0.0 | 0.0 | 0.00 | 0.03 | 0.00 | 80 | 1017.8 |
| 20260505041558 | 13 | 0 | 0.0 | 0.0 | 0.00 | 0.03 | 0.00 | 78 | 1017.6 |
| 20260505040100 | 13 | 0 | 0.0 | 0.0 | 0.00 | 0.03 | 0.00 | 77 | 1017.6 |
| 20260505034559 | 14 | 0 | 0.0 | 0.0 | 0.00 | 0.03 | 0.03 | 76 | 1017.7 |
| 20260505033059 | 14 | 0 | 0.0 | 0.0 | 0.00 | 0.03 | 0.03 | 75 | 1017.7 |
| 20260505031559 | 15 | 0 | 0.0 | 0.0 | 0.00 | 0.03 | 0.03 | 74 | 1017.8 |
| 20260505030056 | 15 | 0 | 0.0 | 0.0 | 0.00 | 0.03 | 0.03 | 74 | 1017.9 |
| 20260505024559 | 15 | 0 | 0.0 | 0.0 | 0.00 | 0.03 | 0.03 | 74 | 1017.9 |
| 20260505023104 | 15 | 0 | 0.0 | 0.0 | 0.00 | 0.03 | 0.03 | 73 | 1017.8 |
| 20260505021556 | 16 | 0 | 0.0 | 0.0 | 0.00 | 0.03 | 0.03 | 71 | 1017.8 |
| 20260505020100 | 16 | 0 | 0.0 | 0.0 | 0.00 | 0.03 | 0.03 | 68 | 1017.8 |
| 20260505014606 | 16 | 0 | 0.0 | 0.0 | 0.00 | 0.03 | 0.03 | 66 | 1017.7 |
| 20260505013059 | 16 | 0 | 0.0 | 0.0 | 0.00 | 0.03 | 0.03 | 66 | 1017.5 |
| 20260505011600 | 17 | 0 | 0.0 | 0.0 | 0.00 | 0.03 | 0.03 | 64 | 1017.4 |
| 20260505010118 | 17 | 0 | 0.0 | 0.0 | 0.00 | 0.03 | 0.03 | 64 | 1017.1 |
| 20260505004611 | 17 | 0 | 0.0 | 0.0 | 0.00 | 0.03 | 0.03 | 63 | 1017.0 |
| 20260505003102 | 18 | 0 | 0.0 | 3.2 | 0.00 | 0.03 | 0.03 | 60 | 1016.6 |
| 20260505001610 | 18 | 0 | 0.0 | 4.8 | 0.00 | 0.03 | 0.03 | 60 | 1016.4 |
| 20260505000058 | 19 | 0 | 0.0 | 4.8 | 0.00 | 0.03 | 0.03 | 57 | 1016.3 |
| 20260504234604 | 20 | 0 | 0.0 | 3.2 | 0.00 | 0.03 | 0.03 | 55 | 1016.1 |
| 20260504233100 | 20 | 0 | 0.0 | 11.3 | 0.00 | 0.03 | 0.03 | 53 | 1016.1 |
| 20260504231600 | 20 | 0 | 0.0 | 11.3 | 0.00 | 0.03 | 0.03 | 55 | 1016.1 |
| 20260504230058 | 21 | 0 | 1.6 | 11.3 | 0.00 | 0.03 | 0.03 | 52 | 1016.0 |
| 20260504224601 | 21 | 0 | 0.0 | 8.0 | 0.00 | 0.05 | 0.03 | 55 | 1016.0 |
| 20260504223104 | 21 | 0 | 0.0 | 9.7 | 0.00 | 0.05 | 0.03 | 55 | 1016.0 |
| 20260504221606 | 22 | 25 | 0.0 | 8.0 | 0.00 | 0.05 | 0.03 | 53 | 1015.9 |
| 20260504220056 | 22 | 120 | 0.0 | 9.7 | 0.00 | 0.05 | 0.03 | 52 | 1015.9 |
| 20260504214605 | 23 | 0 | 1.6 | 14.5 | 0.00 | 0.05 | 0.03 | 51 | 1015.7 |
| 20260504213112 | 23 | 0 | 0.0 | 19.3 | 0.00 | 0.05 | 0.03 | 51 | 1015.8 |
| 20260504211557 | 23 | 74 | 0.0 | 14.5 | 0.00 | 0.05 | 0.03 | 49 | 1015.8 |
| 20260504210058 | 24 | 0 | 0.0 | 8.0 | 0.00 | 0.05 | 0.03 | 50 | 1015.8 |
| 20260504204605 | 24 | 0 | 0.0 | 16.1 | 0.00 | 0.05 | 0.03 | 52 | 1015.9 |
| 20260504203055 | 25 | 0 | 0.0 | 8.0 | 0.00 | 0.05 | 0.03 | 46 | 1015.9 |
| 20260504201557 | 26 | 0 | 0.0 | 4.8 | 0.00 | 0.05 | 0.03 | 37 | 1015.9 |